• In Belarus
  • List of Countries
  • For 7 days
  • Water Temperature
  • Satellite Maps
  • Weather Map
  • Weather Widgets
  • user-avatar
    Login

    Hourly Weather Chuhunivka

    Today, 18 December, Monday

    Time Temperature Precipitation Wind Pressure Humidity
    00:00 +6°C° 0.7 mm 5 mps 746 mmHg 89%
    01:00 +5°C° 0.6 mm 5 mps 746 mmHg 88%
    02:00 +5°C° 0.6 mm 5 mps 746 mmHg 88%
    03:00 +5°C° 0 mm 5 mps 746 mmHg 87%
    04:00 +4°C° 0.4 mm 6 mps 746 mmHg 88%
    05:00 +4°C° 0.4 mm 6 mps 745 mmHg 88%
    06:00 +3°C° 0.4 mm 6 mps 745 mmHg 88%
    07:00 +3°C° 0.4 mm 6 mps 745 mmHg 89%
    08:00 +3°C° 0.4 mm 7 mps 745 mmHg 89%
    09:00 +3°C° 0 mm 7 mps 745 mmHg 89%
    10:00 +3°C° 1.2 mm 7 mps 745 mmHg 89%
    11:00 +4°C° 1.2 mm 7 mps 744 mmHg 89%
    12:00 +4°C° 1.2 mm 8 mps 744 mmHg 89%
    13:00 +4°C° 1.7 mm 8 mps 744 mmHg 89%
    14:00 +4°C° 1.7 mm 8 mps 743 mmHg 89%
    15:00 +4°C° 1.7 mm 8 mps 743 mmHg 89%
    16:00 +4°C° 0.3 mm 7 mps 743 mmHg 88%
    17:00 +5°C° 0.3 mm 7 mps 743 mmHg 87%
    18:00 +5°C° 0.3 mm 7 mps 743 mmHg 86%
    19:00 +5°C° 0.1 mm 7 mps 743 mmHg 85%
    20:00 +5°C° 0.1 mm 7 mps 743 mmHg 85%
    21:00 +5°C° 0.1 mm 6 mps 744 mmHg 84%
    22:00 +4°C° 0 mm 6 mps 744 mmHg 83%
    23:00 +3°C° 0 mm 6 mps 744 mmHg 82%

    Tomorrow, 19 December, Tuesday

    Time Temperature Precipitation Wind Pressure Humidity
    00:00 +3°C° 0 mm 5 mps 745 mmHg 81%
    01:00 +2°C° 0 mm 5 mps 745 mmHg 81%
    02:00 +2°C° 0 mm 5 mps 746 mmHg 82%
    03:00 +1°C° 0 mm 4 mps 746 mmHg 82%
    04:00 +1°C° 0 mm 4 mps 746 mmHg 82%
    05:00 +1°C° 0 mm 4 mps 747 mmHg 81%
    06:00 0°C° 0 mm 4 mps 747 mmHg 81%
    07:00 0°C° 0 mm 4 mps 747 mmHg 80%
    08:00 0°C° 0 mm 4 mps 748 mmHg 80%
    09:00 -1°C° 0 mm 4 mps 748 mmHg 79%
    10:00 0°C° 0 mm 4 mps 748 mmHg 77%
    11:00 0°C° 0 mm 4 mps 749 mmHg 74%
    12:00 0°C° 0 mm 4 mps 749 mmHg 72%
    13:00 0°C° 0 mm 4 mps 749 mmHg 71%
    14:00 0°C° 0 mm 4 mps 749 mmHg 71%
    15:00 0°C° 0 mm 4 mps 749 mmHg 70%
    16:00 -1°C° 0 mm 4 mps 749 mmHg 73%
    17:00 0°C° 0 mm 3 mps 750 mmHg 75%
    18:00 -1°C° 0 mm 3 mps 750 mmHg 77%
    19:00 -1°C° 0 mm 3 mps 750 mmHg 78%
    20:00 -1°C° 0 mm 3 mps 750 mmHg 79%
    21:00 -1°C° 0 mm 3 mps 751 mmHg 80%
    22:00 -1°C° 0 mm 3 mps 751 mmHg 79%
    23:00 -1°C° 0 mm 3 mps 751 mmHg 79%

    Day after tomorrow, 20 December, Wednesday

    Time Temperature Precipitation Wind Pressure Humidity
    00:00 -1°C° 0 mm 2 mps 751 mmHg 79%
    01:00 -1°C° 0 mm 3 mps 751 mmHg 79%
    02:00 -1°C° 0 mm 3 mps 752 mmHg 79%
    03:00 -1°C° 0 mm 3 mps 752 mmHg 79%
    04:00 -1°C° 0 mm 3 mps 752 mmHg 80%
    05:00 -1°C° 0 mm 3 mps 752 mmHg 82%
    06:00 -1°C° 0 mm 3 mps 753 mmHg 83%
    07:00 -2°C° 0 mm 3 mps 753 mmHg 83%
    08:00 -2°C° 0 mm 3 mps 753 mmHg 83%
    09:00 -2°C° 0 mm 3 mps 754 mmHg 83%
    10:00 -1°C° 0 mm 3 mps 754 mmHg 80%
    11:00 -1°C° 0 mm 3 mps 754 mmHg 76%
    12:00 -1°C° 0 mm 3 mps 755 mmHg 72%
    13:00 -1°C° 0 mm 3 mps 755 mmHg 72%
    14:00 +1°C° 0 mm 2 mps 755 mmHg 71%
    15:00 +1°C° 0 mm 2 mps 755 mmHg 70%
    16:00 -1°C° 0 mm 2 mps 755 mmHg 72%
    17:00 +1°C° 0 mm 1 mps 756 mmHg 75%
    18:00 0°C° 0 mm 1 mps 756 mmHg 77%
    19:00 0°C° 0 mm 1 mps 756 mmHg 77%
    20:00 0°C° 0 mm 1 mps 757 mmHg 78%
    21:00 0°C° 0 mm 1 mps 757 mmHg 78%
    22:00 0°C° 0 mm 1 mps 757 mmHg 78%
    23:00 0°C° 0 mm 1 mps 757 mmHg 79%

    21 December, Thursday

    Time Temperature Precipitation Wind Pressure Humidity
    00:00 -1°C° 0 mm 0 mps 757 mmHg 80%
    01:00 -1°C° 0 mm 0 mps 758 mmHg 80%
    02:00 -1°C° 0 mm 0 mps 758 mmHg 80%
    03:00 -1°C° 0 mm 0 mps 758 mmHg 80%
    04:00 -1°C° 0 mm 0 mps 758 mmHg 80%
    05:00 -2°C° 0 mm 0 mps 758 mmHg 80%
    06:00 -1°C° 0 mm 1 mps 757 mmHg 80%
    07:00 0°C° 0 mm 1 mps 758 mmHg 80%
    08:00 0°C° 0 mm 1 mps 758 mmHg 79%
    09:00 0°C° 0 mm 1 mps 758 mmHg 78%
    10:00 0°C° 0 mm 1 mps 758 mmHg 74%
    11:00 +1°C° 0 mm 1 mps 757 mmHg 70%
    12:00 -1°C° 0 mm 2 mps 757 mmHg 66%
    13:00 -1°C° 0 mm 2 mps 757 mmHg 64%
    14:00 -1°C° 0 mm 2 mps 757 mmHg 63%
    15:00 -1°C° 0 mm 2 mps 756 mmHg 62%
    16:00 -2°C° 0 mm 2 mps 756 mmHg 64%
    17:00 -2°C° 0 mm 2 mps 756 mmHg 65%
    18:00 -1°C° 0 mm 1 mps 756 mmHg 67%
    19:00 -1°C° 0 mm 1 mps 756 mmHg 68%
    20:00 -3°C° 0 mm 2 mps 756 mmHg 68%
    21:00 -3°C° 0 mm 2 mps 755 mmHg 68%
    22:00 -3°C° 0 mm 2 mps 755 mmHg 69%
    23:00 -3°C° 0 mm 2 mps 755 mmHg 70%

    22 December, Friday

    Time Temperature Precipitation Wind Pressure Humidity
    00:00 -3°C° 0 mm 2 mps 755 mmHg 71%
    01:00 -3°C° 0 mm 2 mps 754 mmHg 72%
    02:00 -3°C° 0 mm 2 mps 754 mmHg 74%
    03:00 -3°C° 0 mm 2 mps 753 mmHg 75%
    04:00 -3°C° 0 mm 2 mps 753 mmHg 76%
    05:00 -3°C° 0 mm 2 mps 753 mmHg 77%
    06:00 -3°C° 0 mm 2 mps 752 mmHg 78%
    07:00 -3°C° 0 mm 2 mps 752 mmHg 78%
    08:00 -3°C° 0 mm 2 mps 752 mmHg 79%
    09:00 -3°C° 0 mm 2 mps 751 mmHg 79%
    10:00 -3°C° 0 mm 2 mps 751 mmHg 76%
    11:00 -2°C° 0 mm 3 mps 751 mmHg 74%
    12:00 -2°C° 0 mm 3 mps 750 mmHg 71%
    13:00 -2°C° 0 mm 3 mps 750 mmHg 71%
    14:00 -2°C° 0 mm 3 mps 749 mmHg 71%
    15:00 -3°C° 0 mm 4 mps 749 mmHg 70%
    16:00 -2°C° 0 mm 3 mps 749 mmHg 72%
    17:00 -4°C° 0 mm 3 mps 749 mmHg 73%
    18:00 -4°C° 0 mm 3 mps 748 mmHg 75%
    19:00 -4°C° 0 mm 3 mps 748 mmHg 75%
    20:00 -4°C° 0 mm 3 mps 748 mmHg 75%
    21:00 -4°C° 0 mm 4 mps 748 mmHg 76%
    22:00 -4°C° 0 mm 4 mps 747 mmHg 75%
    23:00 -4°C° 0 mm 4 mps 747 mmHg 75%

    23 December, Saturday

    Time Temperature Precipitation Wind Pressure Humidity
    00:00 -4°C° 0 mm 4 mps 746 mmHg 75%
    01:00 -5°C° 0.1 mm 5 mps 746 mmHg 77%
    02:00 -5°C° 0.1 mm 5 mps 745 mmHg 79%
    03:00 -5°C° 0.1 mm 5 mps 745 mmHg 81%
    04:00 -5°C° 0.1 mm 5 mps 744 mmHg 82%
    05:00 -5°C° 0.1 mm 5 mps 744 mmHg 84%
    06:00 -5°C° 0.1 mm 5 mps 743 mmHg 85%
    07:00 -5°C° 0.1 mm 5 mps 743 mmHg 86%
    08:00 -5°C° 0.1 mm 5 mps 743 mmHg 87%
    09:00 -3°C° 0.1 mm 4 mps 743 mmHg 88%
    10:00 -4°C° 0.1 mm 5 mps 743 mmHg 86%
    11:00 -4°C° 0.1 mm 5 mps 743 mmHg 85%
    12:00 -2°C° 0.1 mm 5 mps 743 mmHg 83%
    13:00 -2°C° 0.1 mm 5 mps 742 mmHg 83%
    14:00 -2°C° 0.1 mm 4 mps 742 mmHg 83%
    15:00 -2°C° 0.1 mm 4 mps 742 mmHg 83%
    16:00 -2°C° 0 mm 3 mps 742 mmHg 86%
    17:00 -2°C° 0 mm 3 mps 742 mmHg 88%
    18:00 -2°C° 0 mm 2 mps 742 mmHg 90%
    19:00 -2°C° 0 mm 2 mps 743 mmHg 91%
    20:00 -2°C° 0 mm 2 mps 743 mmHg 92%
    21:00 -2°C° 0 mm 2 mps 743 mmHg 93%
    22:00 -2°C° 0 mm 2 mps 743 mmHg 93%
    23:00 -3°C° 0 mm 2 mps 743 mmHg 94%
    Show more